sat.trackr.live / text

‹ back to catalog

STARLINK-34867

NORAD 65459 · 2025-195B

PAYLOAD ACTIVE UNKNOWN

§ Identity

Operator
Country
US
Launch date
2025-09-03
Launch site
AFETR
Launch vehicle
Mass (kg)
RCS (m²)

Purposes: comms

External: N2YO · Heavens-Above · Gunter

§ Orbital elements

Epoch: 2026-05-25T04:00:03.998880Z

Period
93.85 min
Inclination
53.1580°
Eccentricity
0.0001226
Mean motion
15.34373055 rev/d
Perigee alt
461.9 km
Apogee alt
463.6 km
Semi-major
6,840.9 km
B*
1.9737e-3
RAAN
262.7418°
Arg perigee
92.9439°
Mean anomaly
340.5159°
Rev number
580

§ Raw data

STARLINK-348671 65459U 25195B   26145.16671295  .00066848  00000+0  19737-2 0  99962 65459  53.1580 262.7418 0001226  92.9439 340.5159 15.34373055  5806

JSON: /api/v1/satellites/65459 · /tle

For live sub-satellite position, see the globe view (requires WebGL).

§ Visibility from observer

Set your observer location to see the next 7 days of passes ≥ 10°. The values pass through the URL so the page stays shareable.

No JS? Fill the form by hand. The geolocation button needs JavaScript.